SL-12 R/B(2), 23683

Orbit data source: Space-Track

SL-12 R/B(2), 23683 is space debris in GEO originally from a launch on Wed, 11 Oct 1995 UTC launched from the Tyuratam Missile And Space Complex (TTMTR). Debris objects in space refer to the collection of defunct objects orbiting the Earth. Examples of debris include non-operational satellites, rocket bodies, and fragments generated from explosions, collisions, or faulty payload assembly.

Not visible in the next 10 days
Identifier
23683, 1995-054D
Orbit
GEO
Country
Flag of CISCIS
Related business
Manufacturer
RKKE
Mission
Spacecraft
Bus & Motor
BLOK DM, Unknown motor
Mass
2,440 kg wet, 2,440 kg dry
Launch date (UTC)
1995-10-11 (31 years ago)
Launch vehicle
Unknown
Launch site
Tyuratam Missile And Space Complex (TTMTR)
Object type
Payload
Rocket body
Debris
Shape & HBR
Cyl, 3.1 m
Radar Cross Section
23.597 m², Large (>1 m²)

Expand to show TLE details & history
Last TLE update: 22 hours ago

TLE from 22 hours ago
0 SL-12 R/B(2)
1 23683U 95054D   26207.47654772  .00000004  00000-0  00000-0 0  9998
2 23683  15.0015 358.7488 0018618 103.7997  77.9583  1.00163446112760
Epoch: 2026-07-26T11:26Z
TLE epoch observation values (Epoch: 2026-07-26T11:26:13.723Z)
Latitude
-0.50288°
Longitude
64.9219°
Altitude
35,800.08 km
Speed
3.075 km/s
True Right ascension
12h 02m 36s
True Declination
0° 30' 09"
Sunlit
Object was in daylight at epoch
Visualization orbit readout
Latitude
Unknown
Longitude
Unknown
Altitude
Unknown
Speed
Unknown
Apparent Right ascension
Unknown
Apparent Declination
Unknown
Sunlit
N/A
Visualization observer readout
Local Sidereal Time
23:13:44
Azimuth
Unknown
Elevation
Unknown
Doppler factor
Unknown
Orbital elements
Apogee altitude
35,896.519 km
Perigee altitude
35,739.398 km
Semi-major axis
42,196.095 km
Eccentricity
0.00186
Inclination
15.0015°
RAAN
358.7488°
Arg. of periapsis
103.7997°
True anomaly
78.16705°
Mean anomaly
77.9583°
Eccentric anomaly
78.06267°
Mean motion
0.2504 °/min
Orbital period
1,437.7 mins
BSTAR
0
Loading maneuver chart data...
Computing Atmospheric mass density...
Loading historical data...
Loading historical data...
Loading historical data...
Loading historical data...
Loading historical data...
Loading historical data...
Loading historical data...

Documentation

Showing up to 5 results
|